Sioux Falls, SD

1:30 PM CDT on October 22, 2017 (GMT -0500)
Foss

Weather History for KFSD - December, 2012

Change the Weather History Date:

Saturday, December 8, 2012

  Actual Average Record
Temperature  
Mean Temperature 29 °F 21 °F  
Max Temperature 33 °F 30 °F 60 °F (1970)
Min Temperature 25 °F 12 °F -22 °F (1927)
Degree Days  
Heating Degree Days 36 44  
Month to date heating degree days 221 341  
Since 1 July heating degree days 1824 2053  
Cooling Degree Days 0 0  
Month to date cooling degree days 0 0  
Year to date cooling degree days 1182 690  
Moisture  
Dew Point 27 °F    
Average Humidity 87    
Maximum Humidity 92    
Minimum Humidity 82    
Precipitation  
Precipitation 0.05 in 0.02 in 0.61 in (1963)
Month to date precipitation 0.12 0.22  
Year to date precipitation 16.15 25.91  
Snow  
Snow 1.10 in 0.30 in 8.00 in (1963)
Month to date snowfall 1.9 2.2  
Since 1 July snowfall 3.0 10.9  
Snow Depth 1.00 in    
Sea Level Pressure  
Sea Level Pressure 29.90 in    
Wind  
Wind Speed 10 mph (SSE)    
Max Wind Speed 21 mph    
Max Gust Speed 28 mph    
Visibility 5 miles    
Events Snow    
T = Trace of Precipitation, MM = Missing Value Source: NWS Daily Summary

Daily Weather History Graph

Daily Weather History Graph

Search for Another Location

Airport or City:

Trip Planner

Search our weather history database for the weather conditions in past years. The results will help you decide how hot, cold, wet, or windy it might be!

Date:

Astronomy

Dec. 08, 2012 Rise Set
Actual Time 7:47 AM CST 4:50 PM CST
Civil Twilight 7:15 AM CST 5:22 PM CST
Nautical Twilight 6:39 AM CST 5:58 PM CST
Astronomical Twilight 6:04 AM CST 6:33 PM CST
Moon 2:05 AM CST (12/8) 1:27 PM CST (12/8)
Length of Visible Light 10h 07m
Length of Day
9h 02m
Waning Crescent, 28% of the Moon is Illuminated
Dec 8
Waning Crescent
Dec 13
New
Dec 19
First Quarter
Dec 28
Full
Jan 4
Last Quarter

Hourly Weather History & Observations

Time (CST) Temp. Windchill Dew Point Humidity Pressure Visibility Wind Dir Wind Speed Gust Speed Precip Events Conditions
12:56 AM 26.1 °F - 23.0 °F 88% 30.04 in 9.0 mi Calm Calm - N/A   Overcast
1:19 AM 26.6 °F - 24.8 °F 93% 29.99 in 8.0 mi Calm Calm - N/A   Overcast
1:21 AM 26.6 °F - 24.8 °F 93% 29.99 in 8.0 mi Calm Calm - N/A   Overcast
1:56 AM 27.0 °F - 25.0 °F 92% 30.05 in 10.0 mi Calm Calm - N/A   Overcast
2:04 AM 26.6 °F - 24.8 °F 93% 29.99 in 10.0 mi Calm Calm - N/A   Overcast
2:56 AM 28.0 °F - 25.0 °F 88% 30.04 in 9.0 mi Calm Calm - N/A   Overcast
3:56 AM 26.1 °F 20.5 °F 24.1 °F 92% 30.03 in 7.0 mi NE 4.6 mph - N/A   Overcast
4:56 AM 27.0 °F - 24.1 °F 89% 30.03 in 8.0 mi Calm Calm - N/A   Overcast
5:56 AM 26.1 °F 18.4 °F 24.1 °F 92% 30.02 in 8.0 mi SE 6.9 mph - N/A   Overcast
6:56 AM 27.0 °F 20.5 °F 25.0 °F 92% 30.02 in 8.0 mi South 5.8 mph - N/A   Overcast
7:05 AM 26.6 °F 22.6 °F 24.8 °F 93% 29.97 in 8.0 mi SSW 3.5 mph - N/A   Overcast
7:33 AM 26.6 °F 18.2 °F 24.8 °F 93% 29.97 in 7.0 mi SSE 8.1 mph - N/A   Mostly Cloudy
7:56 AM 27.0 °F 19.5 °F 25.0 °F 92% 30.03 in 6.0 mi South 6.9 mph - N/A   Overcast
8:56 AM 27.0 °F 18.7 °F 25.0 °F 92% 30.04 in 6.0 mi South 8.1 mph - N/A   Overcast
9:45 AM 28.4 °F 21.2 °F 24.8 °F 86% 29.96 in 7.0 mi SE 6.9 mph - N/A   Overcast
9:56 AM 28.0 °F 18.6 °F 25.0 °F 88% 30.02 in 7.0 mi SE 10.4 mph - N/A   Overcast
10:16 AM 28.4 °F 19.7 °F 24.8 °F 86% 29.96 in 7.0 mi SE 9.2 mph - N/A   Overcast
10:56 AM 28.0 °F 17.0 °F 25.0 °F 88% 30.00 in 8.0 mi ESE 13.8 mph - N/A   Overcast
11:32 AM 28.4 °F 18.5 °F 24.8 °F 86% 29.93 in 7.0 mi SSE 11.5 mph - N/A   Overcast
11:56 AM 27.0 °F 15.6 °F 25.0 °F 92% 29.98 in 6.0 mi SE 13.8 mph - N/A   Overcast
12:56 PM 28.0 °F 17.5 °F 25.0 °F 88% 29.94 in 7.0 mi SE 12.7 mph - N/A   Overcast
1:56 PM 27.0 °F 15.6 °F 25.0 °F 92% 29.95 in 5.0 mi SSE 13.8 mph - N/A   Overcast
2:56 PM 27.0 °F 16.1 °F 25.0 °F 92% 29.93 in 6.0 mi SSE 12.7 mph - N/A   Overcast
3:56 PM 27.0 °F 16.7 °F 25.0 °F 92% 29.91 in 6.0 mi SE 11.5 mph - N/A   Overcast
4:49 PM 28.4 °F 19.1 °F 24.8 °F 86% 29.85 in 1.5 mi SE 10.4 mph - 0.00 in Snow Light Snow
4:56 PM 28.0 °F 18.1 °F 26.1 °F 92% 29.91 in 1.5 mi SE 11.5 mph - 0.00 in Snow Light Snow
5:01 PM 28.4 °F 18.5 °F 26.6 °F 93% 29.85 in 3.0 mi SE 11.5 mph - 0.00 in Snow Light Snow
5:49 PM 28.4 °F 18.5 °F 26.6 °F 93% 29.83 in 8.0 mi SE 11.5 mph 20.7 mph 0.00 in   Overcast
5:56 PM 28.9 °F 19.8 °F 26.1 °F 89% 29.88 in 8.0 mi SE 10.4 mph - 0.00 in   Overcast
6:37 PM 28.4 °F 18.0 °F 26.6 °F 93% 29.82 in 5.0 mi ESE 12.7 mph 18.4 mph 0.00 in Snow Light Snow
6:42 PM 28.4 °F 18.0 °F 26.6 °F 93% 29.82 in 1.0 mi SE 12.7 mph - 0.00 in Snow Light Snow
6:49 PM 28.4 °F 18.5 °F 26.6 °F 93% 29.82 in 1.0 mi SE 11.5 mph - 0.00 in Snow Light Snow
6:56 PM 28.9 °F 18.2 °F 27.0 °F 92% 29.88 in 1.0 mi SE 13.8 mph - 0.00 in Snow Light Snow
7:01 PM 30.2 °F 20.2 °F 26.6 °F 86% 29.81 in 1.0 mi SE 12.7 mph - 0.00 in Snow Light Snow
7:20 PM 30.2 °F 19.3 °F 28.4 °F 93% 29.80 in 1.5 mi SE 15.0 mph 21.9 mph 0.01 in Snow Light Snow
7:31 PM 30.2 °F 19.8 °F 28.4 °F 93% 29.79 in 1.5 mi SE 13.8 mph 21.9 mph N/A Snow Light Snow
7:56 PM 30.9 °F 20.2 °F 28.0 °F 89% 29.85 in 1.5 mi SSE 15.0 mph 21.9 mph 0.02 in Snow Light Snow
7:58 PM 30.2 °F 19.8 °F 28.4 °F 93% 29.80 in 6.0 mi SSE 13.8 mph - 0.00 in Snow Light Snow
8:30 PM 30.2 °F 18.5 °F 28.4 °F 93% 29.82 in 7.0 mi SSE 17.3 mph - 0.00 in Snow Light Snow
8:33 PM 30.2 °F 19.3 °F 28.4 °F 93% 29.82 in 6.0 mi SSE 15.0 mph - 0.00 in Snow Light Snow
8:46 PM 32.0 °F 23.0 °F 28.4 °F 87% 29.82 in 5.0 mi South 11.5 mph - 0.00 in Snow Light Snow
8:56 PM 32.0 °F 21.2 °F 28.9 °F 88% 29.87 in 5.0 mi SSE 16.1 mph - 0.00 in Snow Light Snow
9:00 PM 32.0 °F 22.5 °F 28.4 °F 87% 29.81 in 1.0 mi SSE 12.7 mph 21.9 mph 0.00 in Snow Light Snow
9:06 PM 30.2 °F 18.9 °F 28.4 °F 93% 29.81 in 0.8 mi SSE 16.1 mph 21.9 mph 0.00 in Snow Light Snow
9:21 PM 30.2 °F 18.9 °F 30.2 °F 100% 29.81 in 0.8 mi SSE 16.1 mph - N/A Snow Light Snow
9:27 PM 30.2 °F 18.5 °F 30.2 °F 100% 29.81 in 1.0 mi SSE 17.3 mph - 0.02 in Snow Light Snow
9:31 PM 30.2 °F 19.8 °F 30.2 °F 100% 29.81 in 1.0 mi SSE 13.8 mph 23.0 mph 0.02 in Snow Light Snow
9:34 PM 30.2 °F 18.9 °F 30.2 °F 100% 29.81 in 0.8 mi SSE 16.1 mph - 0.02 in Snow Light Snow
9:40 PM 30.2 °F 18.5 °F 30.2 °F 100% 29.81 in 1.0 mi SSE 17.3 mph - 0.03 in Snow Light Snow
9:56 PM 32.0 °F 20.5 °F 30.0 °F 92% 29.85 in 1.5 mi SSE 18.4 mph 27.6 mph 0.03 in Snow Light Snow
10:02 PM 32.0 °F 21.2 °F 30.2 °F 93% 29.80 in 1.5 mi SSE 16.1 mph - 0.00 in Snow Light Snow
10:15 PM 32.0 °F 19.8 °F 28.4 °F 87% 29.80 in 8.0 mi SSE 20.7 mph 26.5 mph 0.00 in Snow Light Snow
10:56 PM 33.1 °F 22.6 °F 28.9 °F 85% 29.85 in 9.0 mi South 16.1 mph 25.3 mph 0.00 in Snow Light Snow
11:56 PM 32.0 °F 24.2 °F 30.0 °F 92% 29.84 in 9.0 mi South 9.2 mph 18.4 mph 0.00 in   Mostly Cloudy